Hourly Data Report for July 17, 2021

CAMPBELL RIVER A
BRITISH COLUMBIA
Current Station Operator: NAVCAN

49°57'07.000" N
125°16'23.000" W
108.80 m
1021270
YBL

Download Data

Hourly Data (July 2021)
Hourly Data Report for July 17, 2021
TIME
LST
Temp Definition
°C
Dew Point Definition
°C
Rel Hum Definition
%
Precip. Amount Definition
mm

Wind Dir Definition
10's deg

Wind Spd Definition
km/h
Visibility Definition
km
Stn Press Definition
kPa
Hmdx Definition


Wind Chill Definition


Weather Definition


00:00 13.3 11.5 89 LegendMM 17 5 LegendMM 100.22     LegendNANA
01:00 12.5 11.8 95 LegendMM 30 7 LegendMM 100.23     LegendNANA
02:00 12.4 11.4 94 LegendMM 30 3 LegendMM 100.24     LegendNANA
03:00 11.8 11.3 97 LegendMM 32 4 LegendMM 100.25     LegendNANA
04:00 11.9 11.3 96 LegendMM 29 1 LegendMM 100.28     LegendNANA
05:00 11.4 11.1 98 LegendMM 0 1 LegendMM 100.31     LegendNANA
06:00 13.2 11.9 92 LegendMM 20 1 LegendMM 100.35     LegendNANA
07:00 16.6 11.6 72 LegendMM 26 5 LegendMM 100.41     LegendNANA
08:00 18.2 11.0 62 LegendMM 10 8 LegendMM 100.42     LegendNANA
09:00 18.6 11.0 61 LegendMM 9 9 LegendMM 100.47     LegendNANA
10:00 20.1 10.7 54 LegendMM 9 21 LegendMM 100.49     LegendNANA
11:00 20.5 9.8 50 LegendMM 11 21 LegendMM 100.51     LegendNANA
12:00 19.3 10.0 54 LegendMM 10 18 LegendMM 100.55     LegendNANA
13:00 18.3 9.8 57 LegendMM 12 7 LegendMM 100.60     LegendNANA
14:00 17.9 11.2 64 LegendMM 8 8 LegendMM 100.61     LegendNANA
15:00 20.4 11.3 56 LegendMM 17 5 LegendMM 100.59     LegendNANA
16:00 21.0 10.0 49 LegendMM 9 8 LegendMM 100.57     LegendNANA
17:00 19.2 11.2 59 LegendMM 10 10 LegendMM 100.57     LegendNANA
18:00 19.2 11.4 60 LegendMM 8 5 LegendMM 100.55     LegendNANA
19:00 18.5 12.6 68 LegendMM 2 3 LegendMM 100.57     LegendNANA
20:00 16.1 13.4 83 LegendMM 29 2 LegendMM 100.58     LegendNANA
21:00 14.8 13.2 90 LegendMM 31 4 LegendMM 100.60     LegendNANA
22:00 12.6 11.5 93 LegendMM 31 6 LegendMM 100.60     LegendNANA
23:00 11.9 11.3 96 LegendMM 28 3 LegendMM 100.62     LegendNANA

Notes on Data Quality.

Legend

  • E = Estimated
  • M = Missing
  • NA = Not Available*
  • [empty] = Indicates an unobserved value
Date modified: